[[[{"header":{"parameterUnit":"kt","parameterCategory":2,"dx":1,"dy":1,"la1":30.253999710083008,"la2":30.299108505249023,"lo1":-89.0895004272461,"lo2":-89.04439544677734,"nx":28,"ny":28,"refTime":"2022-10-15T21:00:00:Z","depth":"0","parameterNumber":2,"parameterNumberName":"U-component_of_CURRENTS"},"data":[-0.3846,-0.384,-0.3895,-0.3898,-0.4044,-0.4004,-0.4008,-0.3728,-0.344,-0.2648,-0.2137,-0.1876,-0.2271,-0.2576,-0.2457,-0.2354,-0.238,-0.229,-0.27,-0.2702,-0.2792,-0.2877,-0.2653,-0.204,-0.204,-0.1963,-0.1963,-0.1963,-0.3957,-0.4023,-0.4223,-0.4437,-0.455,-0.48,-0.504,-0.4892,-0.4685,-0.4491,-0.4244,-0.3717,-0.337,-0.3356,-0.3127,-0.299,-0.2905,-0.3068,-0.2916,-0.2907,-0.3225,-0.2983,-0.243,-0.243,-0.243,-0.243,-0.2431,-0.2431,-0.4187,-0.4261,-0.446,-0.468,-0.4958,-0.5128,-0.5186,-0.5406,-0.5474,-0.5362,-0.5702,-0.5218,-0.5041,-0.4611,-0.455,-0.4184,-0.4533,-0.3958,-0.4124,-0.427,-0.4001,-0.4406,-0.4252,-0.4259,-0.4266,-0.4272,-0.4277,0,-0.431,-0.4417,-0.4617,-0.4892,-0.5128,-0.5399,-0.5684,-0.5833,-0.6169,-0.6252,-0.6275,-0.6177,-0.6104,-0.5542,-0.5451,-0.5282,-0.5195,-0.5255,-0.5191,-0.4121,-0.4118,-0.3968,-0.4482,-0.4443,-0.4452,-0.4458,-0.4463,-0.4467,-0.4358,-0.4481,-0.4874,-0.5023,-0.517,-0.5445,-0.5639,-0.5932,-0.611,-0.6424,-0.6518,-0.6589,-0.6465,-0.6392,-0.6078,-0.5871,-0.5893,-0.546,-0.5155,-0.5006,-0.5062,-0.5147,-0.5044,-0.4563,-0.4551,-0.4541,-0.4532,0,-0.435,-0.4564,-0.4843,-0.5181,-0.5292,-0.5453,-0.5793,-0.5961,-0.6127,-0.6348,-0.6378,-0.6468,-0.6429,-0.6354,-0.6304,-0.6156,-0.5921,-0.6037,-0.5452,-0.533,-0.5011,-0.5093,-0.5247,-0.5133,-0.5945,-0.5943,-0.5942,0,-0.4402,-0.4585,-0.4883,-0.5013,-0.5284,-0.547,-0.5723,-0.585,-0.6049,-0.6216,-0.6194,-0.6281,-0.6156,-0.6184,-0.6039,-0.5939,-0.6044,-0.575,-0.5701,-0.517,-0.5113,-0.4957,-0.5009,-0.5859,-0.5857,-0.5856,-0.5854,0,-0.4286,-0.4651,-0.4876,-0.4983,-0.5316,-0.5434,-0.5573,-0.5749,-0.5876,-0.5999,-0.6082,-0.6078,-0.6064,-0.6009,-0.5857,-0.5757,-0.5913,-0.5747,-0.5639,-0.5631,-0.5132,-0.5071,-0.507,-0.5852,-0.5851,-0.5851,-0.585,0,-0.4299,-0.4497,-0.4786,-0.51,-0.518,-0.5315,-0.5544,-0.5673,-0.5807,-0.5831,-0.5846,-0.5781,-0.5795,-0.562,-0.5629,-0.5547,-0.5503,-0.5459,-0.5463,-0.5329,-0.5159,-0.4798,-0.4874,-0.4722,-0.5446,-0.5443,-0.544,0,-0.4145,-0.4455,-0.4568,-0.4844,-0.502,-0.5093,-0.5242,-0.535,-0.5394,-0.5514,-0.5431,-0.5474,-0.5291,-0.5273,-0.5289,-0.5222,-0.5298,-0.5171,-0.522,-0.5225,-0.5109,-0.5296,-0.4705,-0.4844,-0.5396,-0.54,-0.5404,0,-0.4008,-0.4313,-0.4339,-0.4481,-0.4662,-0.4771,-0.4915,-0.5063,-0.5163,-0.516,-0.5289,-0.5233,-0.5158,-0.5145,-0.5045,-0.508,-0.5219,-0.4976,-0.4974,-0.507,-0.5366,-0.5247,-0.5266,-0.5137,-0.5142,-0.5146,-0.5369,0,-0.3998,-0.4151,-0.4234,-0.443,-0.4528,-0.4657,-0.4742,-0.4811,-0.4801,-0.4832,-0.4893,-0.4829,-0.4845,-0.4811,-0.4745,-0.4856,-0.4829,-0.4735,-0.4676,-0.4805,-0.488,-0.4909,-0.4531,-0.4528,-0.4526,-0.4524,0,0,-0.3807,-0.3994,-0.4046,-0.4198,-0.4294,-0.4298,-0.4451,-0.4492,-0.4573,-0.4611,-0.4543,-0.4573,-0.4518,-0.4592,-0.4622,-0.4577,-0.4603,-0.4571,-0.4723,-0.4745,-0.4765,-0.4845,-0.4875,-0.4519,-0.4518,-0.4517,-0.4517,0,-0.3802,-0.3872,-0.3997,-0.4091,-0.4219,-0.4269,-0.4298,-0.4395,-0.4415,-0.4492,-0.4429,-0.4431,-0.4431,-0.4437,-0.4426,-0.4536,-0.4491,-0.4503,-0.465,-0.4698,-0.4724,-0.4746,-0.483,-0.4859,-0.4511,-0.4511,-0.4511,0,-0.371,-0.3806,-0.3861,-0.4026,-0.409,-0.422,-0.4162,-0.426,-0.4344,-0.4238,-0.4326,-0.4279,-0.4242,-0.4295,-0.4305,-0.4267,-0.4407,-0.4316,-0.4329,-0.4383,-0.4431,-0.446,-0.4485,-0.4157,-0.4156,-0.4155,0,0,-0.3701,-0.3801,-0.3926,-0.4031,-0.4086,-0.4139,-0.4186,-0.4211,-0.4247,-0.4253,-0.4241,-0.422,-0.4219,-0.4218,-0.4219,-0.4255,-0.4274,-0.4277,-0.4294,-0.4308,-0.4369,-0.4421,-0.4448,-0.4152,-0.4152,-0.4152,0,0,-0.3686,-0.3835,-0.3849,-0.3988,-0.4077,-0.4162,-0.4218,-0.4212,-0.4232,-0.4214,-0.4164,-0.4158,-0.4192,-0.4157,-0.4127,-0.4193,-0.4119,-0.4125,-0.4227,-0.4247,-0.4263,-0.4341,-0.405,0,0,0,0,0,-0.3726,-0.3823,-0.3835,-0.387,-0.4033,-0.416,-0.4176,-0.4207,-0.4158,-0.4206,-0.4181,-0.4122,-0.4147,-0.4119,-0.4113,-0.4155,-0.4115,-0.4122,-0.4128,-0.4267,-0.4289,-0.4307,0,0,0,0,0,0,-0.3741,-0.3783,-0.3833,-0.3926,-0.3964,-0.4155,-0.4104,-0.4113,-0.4156,-0.4153,-0.4131,-0.4122,-0.4097,-0.4117,-0.4113,-0.4154,-0.4051,-0.4118,-0.4123,-0.4128,-0.4275,-0.4293,-0.4308,0,0,0,0,0,-0.3752,-0.3787,-0.405,-0.3923,-0.3956,-0.4025,-0.4101,-0.4108,-0.4128,-0.4122,-0.4116,-0.4152,-0.4099,-0.4092,-0.4114,-0.4158,-0.4054,-0.4052,-0.4121,-0.4126,-0.413,-0.4284,0,0,0,0,0,0,-0.3761,-0.3766,-0.4056,-0.4066,-0.3904,-0.4014,-0.4035,-0.4104,-0.409,-0.4091,-0.414,-0.4137,-0.4101,-0.4095,-0.409,-0.4164,-0.4056,-0.4055,-0.4054,-0.4125,-0.4128,-0.4131,0,0,0,0,0,0,-0.3749,-0.3774,-0.406,-0.4035,-0.4041,-0.4004,-0.4023,-0.4016,-0.4085,-0.4103,-0.4105,-0.4138,-0.4077,-0.4097,-0.4093,-0.4081,-0.4058,-0.4056,-0.4055,-0.4055,-0.4128,-0.413,0,0,0,0,0,0,-0.3759,-0.3781,-0.4031,-0.4036,-0.4042,-0.4143,-0.399,-0.4129,-0.4151,-0.4099,-0.4146,-0.4144,-0.4078,-0.4075,-0.4096,-0.4086,-0.4083,-0.4058,-0.4057,-0.4056,-0.4056,0,0,0,0,0,0,0,-0.3768,-0.3625,-0.4012,-0.4038,-0.4042,-0.4158,-0.4159,-0.416,-0.4151,-0.4149,-0.4147,-0.4145,-0.4065,-0.4064,-0.4062,-0.409,0,0,-0.4058,-0.4057,0,0,0,0,0,0,0,0,-0.3615,-0.3622,-0.4013,-0.4016,-0.4018,-0.4158,-0.4159,-0.416,-0.415,-0.4149,-0.4147,-0.4146,-0.4065,-0.4064,-0.4063,0,0,0,0,0,0,0,0,0,0,0,0,0,0,0,-0.4013,-0.4016,0,-0.4158,-0.4159,-0.416,-0.415,-0.4149,-0.4148,-0.4147,-0.4065,-0.4064,-0.4063,0,0,0,0,0,0,0,0,0,0,0,0,0,0,0,0,0,0,0,0,0,0,0,0,0,0,0,0,0,0,0,0,0,0,0,0,0,0,0,0,0,0,0,0,0,0,0,0,0,0,0,0,0,0,0,0,0,0,0,0,0,0,0,0,0,0,0,0,0]}],[{"header":{"parameterUnit":"kt","parameterCategory":2,"dx":1,"dy":1,"la1":30.253999710083008,"la2":30.299108505249023,"lo1":-89.0895004272461,"lo2":-89.04439544677734,"nx":28,"ny":28,"refTime":"2022-10-15T21:00:00:Z","depth":"0","parameterNumber":3,"parameterNumberName":"V-component_of_CURRENTS"},"data":[-0.193,-0.2252,-0.242,-0.2756,-0.289,-0.2857,-0.2739,-0.2178,-0.1494,-0.0048,0.118,0.1981,0.2527,0.3035,0.3548,0.3582,0.392,0.3794,0.3969,0.3617,0.3568,0.3521,0.3578,0.3996,0.3998,0.4627,0.4633,0.4638,-0.1823,-0.2039,-0.2322,-0.2564,-0.2741,-0.2727,-0.2679,-0.2417,-0.1977,-0.1178,-0.053,0.0717,0.1346,0.1926,0.2533,0.2851,0.2953,0.2987,0.3158,0.3263,0.2621,0.2644,0.2872,0.2871,0.2871,0.2871,0.2871,0.287,-0.1642,-0.1832,-0.2026,-0.2266,-0.2424,-0.2504,-0.2472,-0.2319,-0.2115,-0.1465,-0.1312,-0.0356,0.0185,0.1145,0.1415,0.204,0.2,0.2343,0.2451,0.2478,0.2651,0.1828,0.1979,0.1978,0.1977,0.1976,0.1976,0,-0.1482,-0.1536,-0.1678,-0.1941,-0.2055,-0.2157,-0.2172,-0.2188,-0.1894,-0.1669,-0.1309,-0.0942,-0.0306,0.0426,0.101,0.1311,0.1874,0.1682,0.197,0.24,0.2417,0.2602,0.182,0.1952,0.1951,0.195,0.1949,0.1949,-0.127,-0.136,-0.1501,-0.1622,-0.1619,-0.1696,-0.1731,-0.1526,-0.1503,-0.115,-0.1142,-0.0733,-0.0354,0.029,0.0819,0.1337,0.1572,0.1637,0.1812,0.203,0.2185,0.2231,0.2358,0.1935,0.1937,0.1938,0.194,0,-0.1183,-0.1134,-0.1266,-0.1256,-0.1266,-0.1351,-0.1276,-0.1283,-0.1035,-0.094,-0.0873,-0.0428,-0.0049,0.039,0.0846,0.1126,0.1615,0.1513,0.15,0.1551,0.2008,0.2109,0.2385,0.2553,0.1741,0.1741,0.1741,0,-0.0962,-0.1032,-0.0986,-0.1035,-0.1155,-0.0953,-0.0986,-0.0843,-0.0633,-0.0579,-0.0194,-0.0092,0.0429,0.0661,0.0965,0.1277,0.1289,0.156,0.1612,0.1671,0.1672,0.1984,0.2099,0.1653,0.1652,0.1652,0.1651,0,-0.0794,-0.0763,-0.0844,-0.0818,-0.0704,-0.0689,-0.062,-0.0382,-0.0336,-0.007,-0.0001,0.0323,0.0442,0.0737,0.1035,0.11,0.1351,0.1484,0.1581,0.1578,0.1722,0.1728,0.2037,0.1651,0.165,0.165,0.165,0,-0.0537,-0.0547,-0.0594,-0.0554,-0.0531,-0.0491,-0.0379,-0.0286,-0.0018,0.0107,0.0312,0.051,0.071,0.082,0.1139,0.1095,0.1233,0.138,0.1388,0.1428,0.148,0.1606,0.1626,0.1906,0.1464,0.1463,0.1461,0,-0.0457,-0.0456,-0.0294,-0.0326,-0.0328,-0.0117,-0.0046,0.0108,0.0269,0.0396,0.0613,0.0718,0.0861,0.0905,0.104,0.1232,0.1296,0.1233,0.1471,0.1477,0.1453,0.1447,0.1525,0.1599,0.1443,0.1445,0.1446,0,-0.035,-0.0175,-0.0175,-0.018,0.0038,0.0079,0.0185,0.0322,0.0364,0.0568,0.0641,0.081,0.0924,0.099,0.1103,0.1204,0.1264,0.1276,0.1285,0.1291,0.1442,0.1422,0.1432,0.1351,0.1353,0.1355,0.1431,0,-0.019,-0.0131,-0.0108,0.0037,0.0126,0.0173,0.0366,0.0447,0.056,0.0697,0.0814,0.0977,0.1098,0.1134,0.1207,0.1268,0.1286,0.1355,0.1395,0.1377,0.1409,0.142,0.1324,0.1327,0.1329,0.133,0,0,-0.0158,-0.006,0.0128,0.019,0.025,0.0456,0.0477,0.0602,0.0803,0.0855,0.0911,0.1125,0.1204,0.1284,0.1288,0.1327,0.1377,0.1309,0.1376,0.138,0.1384,0.1414,0.1422,0.1333,0.1334,0.1335,0.1335,0,-0.007,0.0068,0.0107,0.0216,0.039,0.0515,0.0529,0.0743,0.0823,0.0919,0.1038,0.1124,0.123,0.1318,0.1368,0.135,0.1412,0.135,0.1283,0.1388,0.1389,0.1392,0.142,0.1426,0.134,0.134,0.1339,0,0.0006,0.015,0.0197,0.0404,0.0526,0.0604,0.0748,0.0854,0.0909,0.1061,0.1139,0.1233,0.1337,0.1385,0.1404,0.1422,0.1456,0.1431,0.1424,0.1424,0.1536,0.1537,0.1537,0.1528,0.1529,0.1529,0,0,0.0061,0.0148,0.0369,0.044,0.0504,0.07,0.0777,0.0883,0.102,0.1073,0.1173,0.1263,0.1334,0.1363,0.1436,0.146,0.1522,0.1448,0.144,0.1432,0.1427,0.1536,0.1537,0.1529,0.1529,0.1529,0,0,0.0093,0.0335,0.0407,0.0512,0.065,0.0881,0.0918,0.1019,0.1128,0.1132,0.1256,0.128,0.1321,0.1375,0.1371,0.1425,0.147,0.1472,0.1373,0.1363,0.1355,0.1333,0.1434,0,0,0,0,0,0.0272,0.0304,0.0366,0.0411,0.069,0.0847,0.0885,0.104,0.1088,0.1108,0.1215,0.1248,0.1409,0.1408,0.1424,0.1391,0.1532,0.1531,0.1531,0.1411,0.14,0.139,0,0,0,0,0,0,0.0291,0.0344,0.0366,0.0595,0.066,0.0848,0.0954,0.0998,0.1089,0.1104,0.1235,0.1252,0.1334,0.1403,0.1416,0.1384,0.1429,0.1532,0.1531,0.1531,0.1407,0.1398,0.139,0,0,0,0,0,0.0307,0.035,0.0754,0.0596,0.0653,0.0869,0.0954,0.0991,0.1063,0.1201,0.1225,0.1171,0.1332,0.1348,0.1411,0.1376,0.142,0.1425,0.1531,0.1531,0.1531,0.1403,0,0,0,0,0,0,0.0319,0.0388,0.0769,0.0793,0.059,0.0861,0.0907,0.0984,0.1154,0.1182,0.1139,0.1148,0.1331,0.1344,0.1356,0.1368,0.1413,0.1418,0.1421,0.1531,0.1531,0.153,0,0,0,0,0,0,0.0366,0.0406,0.0781,0.0764,0.0788,0.0853,0.0894,0.0942,0.1148,0.1081,0.1097,0.114,0.1266,0.1341,0.135,0.1424,0.1407,0.1412,0.1415,0.1417,0.1531,0.1531,0,0,0,0,0,0,0.0386,0.0421,0.0759,0.0777,0.0797,0.1074,0.0893,0.1141,0.1227,0.1067,0.1229,0.123,0.1257,0.1273,0.1346,0.1416,0.1422,0.1407,0.1411,0.1413,0.1414,0,0,0,0,0,0,0,0.0403,0.0127,0.0629,0.0787,0.0805,0.1011,0.1018,0.1024,0.1228,0.1228,0.1229,0.123,0.138,0.1385,0.139,0.1408,0,0,0.1407,0.1409,0,0,0,0,0,0,0,0,0.0117,0.0125,0.063,0.0635,0.064,0.1012,0.1017,0.1023,0.1228,0.1228,0.1229,0.123,0.1381,0.1385,0.139,0,0,0,0,0,0,0,0,0,0,0,0,0,0,0,0.063,0.0634,0,0.1013,0.1017,0.1022,0.1228,0.1228,0.1229,0.1229,0.1382,0.1386,0.1389,0,0,0,0,0,0,0,0,0,0,0,0,0,0,0,0,0,0,0,0,0,0,0,0,0,0,0,0,0,0,0,0,0,0,0,0,0,0,0,0,0,0,0,0,0,0,0,0,0,0,0,0,0,0,0,0,0,0,0,0,0,0,0,0,0,0,0,0,0]}]],[[{"header":{"parameterUnit":"kt","parameterCategory":2,"dx":1,"dy":1,"la1":30.253999710083008,"la2":30.299108505249023,"lo1":-89.0895004272461,"lo2":-89.04439544677734,"nx":28,"ny":28,"refTime":"2022-10-15T21:00:00:Z","depth":"2","parameterNumber":2,"parameterNumberName":"U-component_of_CURRENTS"},"data":[-0.4381,-0.4271,-0.425,-0.3838,-0.3788,-0.3317,-0.3074,-0.279,-0.2573,-0.2149,-0.1987,-0.2119,-0.214,-0.1765,-0.167,-0.1484,-0.1896,-0.1409,-0.2274,-0.2645,-0.2735,-0.3017,-0.2745,0,0,0,0,0,-0.4522,-0.451,-0.4566,-0.4501,-0.4367,-0.4536,-0.435,-0.406,-0.354,-0.3477,-0.309,-0.2622,-0.2257,-0.2334,-0.2119,-0.2008,-0.215,-0.1967,-0.2201,-0.2302,-0.2395,-0.2152,-0.1386,-0.1383,-0.138,-0.1378,0,0,-0.4735,-0.4755,-0.4817,-0.4866,-0.4951,-0.4846,-0.4708,-0.469,-0.4484,-0.4148,-0.4147,-0.3678,-0.3638,-0.3102,-0.2925,-0.2949,-0.3176,-0.3104,-0.3154,-0.3214,-0.2998,-0.2909,-0.2462,-0.2467,-0.2471,-0.2474,-0.2477,0,-0.4843,-0.4905,-0.4997,-0.5098,-0.5184,-0.527,-0.5313,-0.5317,-0.536,-0.5283,-0.4903,-0.464,-0.443,-0.394,-0.3843,-0.3669,-0.4149,-0.387,-0.4706,-0.3839,-0.378,-0.3743,-0.3788,-0.3526,-0.3537,-0.3545,-0.3551,-0.3555,-0.4877,-0.4964,-0.517,-0.5224,-0.53,-0.5435,-0.5508,-0.5689,-0.5675,-0.5672,-0.5562,-0.5528,-0.5152,-0.4953,-0.4752,-0.4558,-0.4787,-0.4151,-0.3955,-0.4643,-0.4598,-0.4612,-0.4622,-0.3671,-0.3657,-0.3645,-0.3635,0,-0.4884,-0.5011,-0.516,-0.535,-0.5401,-0.5475,-0.564,-0.5717,-0.5835,-0.5808,-0.5824,-0.5825,-0.5633,-0.5669,-0.5547,-0.5353,-0.5161,-0.5009,-0.4725,-0.4614,-0.4697,-0.4692,-0.4563,-0.4548,-0.4536,-0.4526,-0.4517,0,-0.493,-0.5025,-0.5207,-0.5286,-0.5403,-0.5501,-0.5611,-0.5669,-0.5766,-0.5742,-0.5841,-0.5747,-0.5774,-0.5724,-0.5613,-0.5306,-0.5527,-0.5019,-0.4955,-0.4701,-0.4644,-0.5295,-0.5282,-0.5394,-0.5393,-0.5392,-0.5392,0,-0.4876,-0.5091,-0.5202,-0.5262,-0.5446,-0.5466,-0.5537,-0.56,-0.5659,-0.5726,-0.5763,-0.5736,-0.5741,-0.5654,-0.5542,-0.5513,-0.5482,-0.5431,-0.5016,-0.4993,-0.4664,-0.4602,-0.5391,-0.5391,-0.539,-0.539,-0.539,0,-0.4899,-0.5017,-0.5184,-0.5326,-0.5367,-0.5452,-0.5511,-0.5595,-0.5629,-0.5626,-0.5596,-0.5574,-0.5574,-0.5486,-0.5442,-0.542,-0.5362,-0.5324,-0.5324,-0.4886,-0.4791,-0.4536,-0.4495,-0.5325,-0.5324,-0.5323,-0.5322,0,-0.4798,-0.4998,-0.5046,-0.5206,-0.5309,-0.5311,-0.5391,-0.5424,-0.5433,-0.5475,-0.54,-0.5441,-0.5346,-0.5356,-0.5325,-0.5296,-0.5296,-0.5261,-0.5195,-0.5195,-0.4798,-0.4826,-0.4495,-0.4512,-0.5311,-0.5312,-0.5313,0,-0.4708,-0.489,-0.4901,-0.4969,-0.5073,-0.5148,-0.5212,-0.5271,-0.5305,-0.5298,-0.5316,-0.5321,-0.5266,-0.526,-0.5224,-0.5215,-0.5279,-0.5154,-0.515,-0.5175,-0.5277,-0.4866,-0.4835,-0.5206,-0.5207,-0.5208,-0.5304,0,-0.4724,-0.4784,-0.4835,-0.4944,-0.5002,-0.5085,-0.5147,-0.5169,-0.5126,-0.5134,-0.5136,-0.5127,-0.5104,-0.5107,-0.5085,-0.5122,-0.5104,-0.5037,-0.4954,-0.505,-0.5085,-0.5093,-0.4963,-0.4961,-0.4959,-0.4957,0,0,-0.4588,-0.4671,-0.4684,-0.4788,-0.4825,-0.4831,-0.4925,-0.4967,-0.5006,-0.4983,-0.4949,-0.4935,-0.4909,-0.4942,-0.499,-0.4983,-0.4971,-0.4936,-0.5016,-0.5023,-0.5029,-0.5066,-0.5076,-0.4953,-0.4952,-0.4952,-0.4951,0,-0.4595,-0.4582,-0.4643,-0.4713,-0.4783,-0.4815,-0.4829,-0.4884,-0.4873,-0.4927,-0.4854,-0.4843,-0.4849,-0.4843,-0.4837,-0.4951,-0.4865,-0.4941,-0.5017,-0.4999,-0.5009,-0.5017,-0.5056,-0.5066,-0.4946,-0.4946,-0.4946,0,-0.4539,-0.4562,-0.457,-0.4654,-0.4687,-0.4786,-0.4712,-0.477,-0.482,-0.4718,-0.4744,-0.471,-0.4685,-0.4734,-0.4738,-0.4698,-0.4775,-0.4744,-0.4756,-0.475,-0.4725,-0.4738,-0.475,-0.4593,-0.4592,-0.4591,0,0,-0.454,-0.4559,-0.4627,-0.4657,-0.4695,-0.4709,-0.4732,-0.4729,-0.474,-0.4731,-0.4691,-0.4654,-0.4658,-0.4646,-0.465,-0.469,-0.466,-0.4703,-0.472,-0.4734,-0.4736,-0.4715,-0.4729,-0.4587,-0.4587,-0.4587,0,0,-0.454,-0.4581,-0.4559,-0.4605,-0.467,-0.4721,-0.4745,-0.4716,-0.4716,-0.4674,-0.4605,-0.4594,-0.4613,-0.4583,-0.4543,-0.4607,-0.4537,-0.4545,-0.4623,-0.4643,-0.466,-0.466,-0.4443,0,0,0,0,0,-0.4548,-0.4585,-0.4565,-0.4574,-0.463,-0.4736,-0.4745,-0.4721,-0.4634,-0.4678,-0.4629,-0.455,-0.4567,-0.4531,-0.4524,-0.4549,-0.4539,-0.4548,-0.4556,-0.4667,-0.4688,-0.4707,0,0,0,0,0,0,-0.4552,-0.4564,-0.4564,-0.4613,-0.4625,-0.4732,-0.464,-0.4636,-0.4631,-0.462,-0.4566,-0.455,-0.4518,-0.4527,-0.4523,-0.4548,-0.4444,-0.4543,-0.455,-0.4556,-0.4674,-0.4692,-0.4707,0,0,0,0,0,-0.4555,-0.4565,-0.4651,-0.4612,-0.4623,-0.4614,-0.4635,-0.4631,-0.4617,-0.4583,-0.4567,-0.4591,-0.4522,-0.4511,-0.4524,-0.4552,-0.4446,-0.4445,-0.4547,-0.4553,-0.4558,-0.4683,0,0,0,0,0,0,-0.4558,-0.4568,-0.4653,-0.4657,-0.457,-0.4608,-0.461,-0.4628,-0.4577,-0.4566,-0.4607,-0.4599,-0.4526,-0.4517,-0.4509,-0.4558,-0.4448,-0.4447,-0.4446,-0.4552,-0.4556,-0.456,0,0,0,0,0,0,-0.4563,-0.4571,-0.4655,-0.4603,-0.46,-0.4602,-0.4604,-0.4606,-0.4573,-0.4602,-0.4596,-0.4604,-0.4497,-0.4521,-0.4515,-0.4523,-0.445,-0.4448,-0.4448,-0.4447,-0.4555,-0.4559,0,0,0,0,0,0,-0.4567,-0.4574,-0.4602,-0.46,-0.4597,-0.4635,-0.4599,-0.463,-0.4607,-0.4602,-0.4596,-0.459,-0.4501,-0.4496,-0.452,-0.4531,-0.4525,-0.445,-0.4449,-0.4448,-0.4448,0,0,0,0,0,0,0,-0.457,-0.4519,-0.4632,-0.4597,-0.4595,-0.469,-0.4691,-0.4692,-0.4606,-0.4601,-0.4597,-0.4593,-0.4456,-0.4455,-0.4454,-0.4537,0,0,-0.445,-0.4449,0,0,0,0,0,0,0,0,-0.4516,-0.4518,-0.4632,-0.4633,-0.4634,-0.469,-0.4691,-0.4692,-0.4605,-0.4602,-0.4598,-0.4594,-0.4456,-0.4455,-0.4454,0,0,0,0,0,0,0,0,0,0,0,0,0,0,0,-0.4632,-0.4633,0,-0.469,-0.4691,-0.4692,-0.4605,-0.4602,-0.4599,-0.4596,-0.4456,-0.4455,-0.4454,0,0,0,0,0,0,0,0,0,0,0,0,0,0,0,0,0,0,0,0,0,0,0,0,0,0,0,0,0,0,0,0,0,0,0,0,0,0,0,0,0,0,0,0,0,0,0,0,0,0,0,0,0,0,0,0,0,0,0,0,0,0,0,0,0,0,0,0,0]}],[{"header":{"parameterUnit":"kt","parameterCategory":2,"dx":1,"dy":1,"la1":30.253999710083008,"la2":30.299108505249023,"lo1":-89.0895004272461,"lo2":-89.04439544677734,"nx":28,"ny":28,"refTime":"2022-10-15T21:00:00:Z","depth":"2","parameterNumber":3,"parameterNumberName":"V-component_of_CURRENTS"},"data":[-0.2414,-0.2465,-0.2437,-0.2282,-0.2195,-0.1968,-0.1824,-0.1689,-0.1392,-0.1122,-0.082,-0.0388,0.0112,0.0439,0.0748,0.0964,0.1045,0.0955,0.0987,0.1021,0.1034,0.1308,0.1111,0,0,0,0,0,-0.2343,-0.2366,-0.2383,-0.2291,-0.2172,-0.2082,-0.1812,-0.1657,-0.1464,-0.1073,-0.0799,-0.0329,0.0047,0.0551,0.0981,0.1152,0.1184,0.1202,0.1252,0.1267,0.1281,0.1148,0.1129,0.113,0.1131,0.1131,0,0,-0.2213,-0.2265,-0.2244,-0.2215,-0.214,-0.1961,-0.1863,-0.1618,-0.1395,-0.0937,-0.0669,-0.0334,0.013,0.065,0.0955,0.1275,0.1262,0.1323,0.1332,0.1343,0.121,0.1075,0.1207,0.1208,0.1208,0.1209,0.1209,0,-0.2054,-0.2058,-0.2036,-0.2038,-0.1986,-0.1853,-0.1663,-0.1544,-0.1103,-0.0898,-0.0512,-0.0329,0.0268,0.0617,0.1028,0.1189,0.1445,0.146,0.161,0.1348,0.1217,0.1233,0.1219,0.14,0.1402,0.1403,0.1404,0.1405,-0.1876,-0.1901,-0.1817,-0.1811,-0.1751,-0.1682,-0.1586,-0.1295,-0.1099,-0.0591,-0.0405,0.0016,0.0262,0.082,0.115,0.1452,0.1523,0.1511,0.1387,0.1365,0.1386,0.1362,0.134,0.1426,0.1423,0.1421,0.142,0,-0.1792,-0.1695,-0.1664,-0.1502,-0.146,-0.1451,-0.1203,-0.1099,-0.0849,-0.057,-0.0479,-0.0013,0.0365,0.0728,0.1164,0.125,0.1518,0.1562,0.141,0.1427,0.1368,0.1342,0.1586,0.1583,0.1581,0.1579,0.1578,0,-0.1605,-0.1574,-0.1429,-0.1407,-0.1364,-0.1131,-0.105,-0.0887,-0.0614,-0.0415,-0.0176,0.0039,0.0421,0.0733,0.0918,0.119,0.1321,0.129,0.1335,0.1262,0.1239,0.137,0.1351,0.1516,0.1514,0.1512,0.151,0,-0.1532,-0.1338,-0.1315,-0.1236,-0.0983,-0.0933,-0.0808,-0.0568,-0.0433,-0.0197,-0.0066,0.0194,0.0371,0.0594,0.0877,0.0825,0.1288,0.1274,0.1272,0.1263,0.1302,0.1284,0.1508,0.1508,0.1507,0.1506,0.1506,0,-0.1331,-0.1271,-0.1193,-0.0986,-0.093,-0.0828,-0.0634,-0.0485,-0.0215,-0.011,0.005,0.0198,0.0425,0.0425,0.0787,0.0673,0.0802,0.0956,0.097,0.0889,0.0881,0.0994,0.1095,0.1101,0.1097,0.1093,0.109,0,-0.1305,-0.1208,-0.1057,-0.0925,-0.0848,-0.064,-0.0502,-0.0317,-0.018,-0.0019,0.0161,0.0292,0.0314,0.0338,0.0476,0.0683,0.0786,0.0636,0.0962,0.0971,0.081,0.0902,0.0834,0.1041,0.1043,0.1048,0.1051,0,-0.127,-0.1064,-0.1049,-0.0978,-0.0735,-0.0633,-0.0481,-0.0284,-0.022,-0.0039,0.008,0.0258,0.0289,0.0372,0.0441,0.057,0.0711,0.0577,0.0587,0.0642,0.0999,0.0854,0.0872,0.0751,0.0756,0.0761,0.1014,0,-0.1099,-0.1035,-0.1008,-0.0838,-0.0718,-0.0629,-0.041,-0.0322,-0.0248,-0.011,0.0032,0.019,0.032,0.0356,0.0408,0.0536,0.0535,0.0571,0.0566,0.0627,0.0728,0.0757,0.0436,0.0438,0.0439,0.044,0,0,-0.1092,-0.1023,-0.0905,-0.0811,-0.0717,-0.0556,-0.047,-0.0337,-0.0135,-0.0079,-0.0084,0.0174,0.0252,0.0407,0.042,0.0474,0.0535,0.0404,0.0587,0.0602,0.0617,0.0716,0.0742,0.0442,0.0442,0.0442,0.0443,0,-0.1012,-0.0961,-0.0941,-0.0807,-0.064,-0.0505,-0.0496,-0.0294,-0.0235,-0.0088,-0.0017,0.0073,0.0221,0.0329,0.0397,0.0476,0.0503,0.0458,0.0435,0.059,0.0604,0.0617,0.0715,0.0738,0.0445,0.0445,0.0445,0,-0.0942,-0.0848,-0.0837,-0.0663,-0.0548,-0.0419,-0.0363,-0.027,-0.0176,-0.0093,0.0009,0.0085,0.0212,0.0315,0.0348,0.0341,0.0494,0.0414,0.0412,0.0423,0.0585,0.0601,0.0615,0.0435,0.0434,0.0433,0,0,-0.0882,-0.086,-0.0652,-0.0627,-0.056,-0.039,-0.0322,-0.0251,-0.0124,-0.0092,-0.0009,0.0078,0.0183,0.0213,0.0319,0.0402,0.0486,0.0406,0.0407,0.0406,0.0416,0.0577,0.0593,0.043,0.043,0.043,0,0,-0.0842,-0.0673,-0.0629,-0.0591,-0.0437,-0.022,-0.02,-0.0137,-0.0044,-0.0077,0.002,0.0042,0.0117,0.0175,0.0134,0.0271,0.028,0.0291,0.0203,0.0206,0.0207,0.019,0.0133,0,0,0,0,0,-0.0673,-0.0685,-0.0647,-0.0617,-0.0408,-0.0226,-0.0192,-0.0107,-0.0135,-0.0112,-0.0027,-0.0041,0.0188,0.0154,0.0178,0.0162,0.0395,0.0401,0.0407,0.0318,0.0319,0.032,0,0,0,0,0,0,-0.066,-0.0626,-0.0644,-0.0436,-0.0387,-0.0227,-0.0208,-0.0181,-0.0137,-0.0139,-0.0044,-0.0034,0.0037,0.0143,0.0164,0.0147,0.0126,0.0397,0.0402,0.0407,0.0318,0.0319,0.032,0,0,0,0,0,-0.0648,-0.062,-0.0336,-0.0433,-0.039,-0.0252,-0.0213,-0.0191,-0.0172,-0.0039,-0.0029,-0.0126,0.004,0.0057,0.0155,0.0135,0.0111,0.0119,0.0401,0.0405,0.0409,0.0319,0,0,0,0,0,0,-0.064,-0.0578,-0.0323,-0.0302,-0.0484,-0.0261,-0.0233,-0.02,-0.0077,-0.0061,-0.0113,-0.0116,0.0043,0.0056,0.0069,0.0128,0.0099,0.0107,0.0112,0.0404,0.0407,0.041,0,0,0,0,0,0,-0.0591,-0.0563,-0.0312,-0.0382,-0.0369,-0.0269,-0.0245,-0.0149,-0.0081,-0.016,-0.0155,-0.0117,-0.0023,0.0055,0.0066,0.0219,0.009,0.0098,0.0103,0.0106,0.0407,0.0409,0,0,0,0,0,0,-0.0576,-0.0551,-0.0387,-0.0377,-0.0365,-0.0129,-0.0185,-0.0009,-0.0051,-0.017,-0.0062,-0.0068,-0.0027,-0.0012,0.0064,0.0212,0.0217,0.009,0.0095,0.0099,0.0102,0,0,0,0,0,0,0,-0.0563,-0.0778,-0.0445,-0.0372,-0.0363,-0.0113,-0.0107,-0.0101,-0.0052,-0.0057,-0.0061,-0.0065,0.0046,0.0054,0.0063,0.0207,0,0,0.0089,0.0093,0,0,0,0,0,0,0,0,-0.0784,-0.078,-0.0444,-0.044,-0.0436,-0.0112,-0.0107,-0.0102,-0.0053,-0.0057,-0.006,-0.0064,0.0048,0.0055,0.0062,0,0,0,0,0,0,0,0,0,0,0,0,0,0,0,-0.0444,-0.0441,0,-0.0111,-0.0107,-0.0103,-0.0053,-0.0056,-0.0059,-0.0062,0.005,0.0055,0.0061,0,0,0,0,0,0,0,0,0,0,0,0,0,0,0,0,0,0,0,0,0,0,0,0,0,0,0,0,0,0,0,0,0,0,0,0,0,0,0,0,0,0,0,0,0,0,0,0,0,0,0,0,0,0,0,0,0,0,0,0,0,0,0,0,0,0,0,0,0]}]],[[{"header":{"parameterUnit":"kt","parameterCategory":2,"dx":1,"dy":1,"la1":30.253999710083008,"la2":30.299108505249023,"lo1":-89.0895004272461,"lo2":-89.04439544677734,"nx":28,"ny":28,"refTime":"2022-10-15T21:00:00:Z","depth":"4","parameterNumber":2,"parameterNumberName":"U-component_of_CURRENTS"},"data":[-0.1048,-0.102,-0.0971,-0.0859,-0.0817,-0.0813,-0.0901,-0.1055,-0.1132,-0.1362,-0.1453,-0.1614,-0.1763,-0.1883,-0.1935,-0.1958,-0.2068,-0.2181,-0.2176,-0.2462,-0.2489,-0.2513,-0.2667,0,0,0,0,0,-0.1094,-0.1057,-0.1016,-0.1034,-0.1014,-0.1036,-0.1143,-0.122,-0.141,-0.1485,-0.1672,-0.1762,-0.1907,-0.2008,-0.1989,-0.2098,-0.2296,-0.2062,-0.2294,-0.2478,-0.2508,-0.2648,0,0,0,0,0,0,-0.1181,-0.1171,-0.1214,-0.1202,-0.1212,-0.1223,-0.1276,-0.1347,-0.1438,-0.1734,-0.1782,-0.1977,-0.2185,-0.2222,-0.2267,-0.2294,-0.2329,-0.2321,-0.2357,-0.2387,-0.2466,-0.2386,-0.1928,0,0,0,0,0,-0.1275,-0.1346,-0.138,-0.1381,-0.1418,-0.1422,-0.1491,-0.1509,-0.1765,-0.1874,-0.204,-0.2159,-0.2185,-0.2398,-0.2393,-0.2477,-0.2764,-0.2631,-0.265,-0.2876,-0.2839,-0.2755,-0.2779,-0.2622,-0.2625,-0.2628,-0.2629,0,-0.139,-0.1416,-0.1538,-0.1558,-0.1624,-0.1692,-0.1703,-0.1927,-0.1978,-0.2199,-0.222,-0.2363,-0.2545,-0.2484,-0.274,-0.278,-0.2821,-0.2707,-0.2949,-0.289,-0.2793,-0.2811,-0.2827,-0.2653,-0.2651,-0.2649,-0.2647,0,-0.1445,-0.1547,-0.1612,-0.1753,-0.1786,-0.1849,-0.1968,-0.2007,-0.2223,-0.2325,-0.2426,-0.2704,-0.2815,-0.2954,-0.3106,-0.3108,-0.3106,-0.3028,-0.3275,-0.3172,-0.2866,-0.2873,-0.2693,-0.2684,-0.2677,-0.267,-0.2665,0,-0.1557,-0.1599,-0.1729,-0.1761,-0.1819,-0.199,-0.2066,-0.2247,-0.2432,-0.2513,-0.28,-0.2882,-0.3226,-0.3263,-0.3426,-0.3353,-0.3424,-0.3349,-0.3231,-0.3548,-0.355,-0.3454,-0.3445,-0.3557,-0.356,-0.3562,-0.3564,0,-0.161,-0.1709,-0.1764,-0.1812,-0.1971,-0.205,-0.2154,-0.2354,-0.2441,-0.2737,-0.2786,-0.3095,-0.3221,-0.3351,-0.3533,-0.3605,-0.3553,-0.3559,-0.3316,-0.3292,-0.3465,-0.3452,-0.3567,-0.3568,-0.3568,-0.3569,-0.357,0,-0.1701,-0.1745,-0.1814,-0.1942,-0.1971,-0.2056,-0.2227,-0.2352,-0.2566,-0.2718,-0.2942,-0.3106,-0.3375,-0.3488,-0.3636,-0.3691,-0.3713,-0.3718,-0.3701,-0.3456,-0.3278,-0.3241,-0.3391,-0.3391,-0.3392,-0.3393,-0.3394,0,-0.1716,-0.1778,-0.1866,-0.195,-0.1993,-0.2136,-0.2245,-0.2404,-0.2564,-0.2698,-0.2926,-0.3131,-0.3342,-0.3499,-0.3613,-0.3729,-0.3727,-0.38,-0.3489,-0.3478,-0.327,-0.3367,-0.3737,-0.3405,-0.3404,-0.3403,-0.3402,0,-0.173,-0.1858,-0.186,-0.1899,-0.2047,-0.2111,-0.2254,-0.2394,-0.2473,-0.2683,-0.2797,-0.3181,-0.3301,-0.34,-0.3548,-0.3605,-0.3715,-0.364,-0.3633,-0.3473,-0.3591,-0.3396,-0.3368,-0.3726,-0.3728,-0.373,-0.341,0,-0.179,-0.1839,-0.187,-0.1939,-0.2025,-0.2103,-0.2232,-0.2331,-0.2455,-0.2548,-0.2791,-0.2963,-0.3132,-0.3243,-0.3376,-0.3567,-0.3476,-0.3444,-0.3295,-0.3447,-0.3276,-0.3271,-0.3273,-0.3269,-0.3266,-0.3263,0,0,-0.1755,-0.1801,-0.1871,-0.1916,-0.1982,-0.2088,-0.214,-0.2235,-0.238,-0.2444,-0.2499,-0.2792,-0.2911,-0.3102,-0.3265,-0.3263,-0.3201,-0.3263,-0.3384,-0.3398,-0.341,-0.3258,-0.3256,-0.3257,-0.3256,-0.3255,-0.3254,0,-0.175,-0.1807,-0.1835,-0.1902,-0.2016,-0.2068,-0.2109,-0.2211,-0.2285,-0.2434,-0.2508,-0.2679,-0.2831,-0.2927,-0.3,-0.3204,-0.3109,-0.3274,-0.3384,-0.3355,-0.3374,-0.339,-0.3244,-0.3246,-0.3245,-0.3246,-0.3246,0,-0.1721,-0.1776,-0.1804,-0.1901,-0.1954,-0.2012,-0.2044,-0.2152,-0.223,-0.2251,-0.2369,-0.2495,-0.2587,-0.2755,-0.2831,-0.2747,-0.2943,-0.2945,-0.2962,-0.2981,-0.2944,-0.2967,-0.2988,-0.2712,-0.2711,-0.2709,0,0,-0.1707,-0.1752,-0.1837,-0.1901,-0.1934,-0.2012,-0.207,-0.2125,-0.2205,-0.2242,-0.23,-0.2385,-0.2527,-0.2569,-0.267,-0.278,-0.269,-0.2884,-0.2909,-0.293,-0.296,-0.293,-0.2953,-0.2704,-0.2704,-0.2704,0,0,-0.1702,-0.1781,-0.1798,-0.1866,-0.195,-0.2028,-0.2084,-0.2129,-0.221,-0.223,-0.2265,-0.2285,-0.2475,-0.2449,-0.2378,-0.2647,-0.2537,-0.2552,-0.2669,-0.27,-0.2725,-0.2745,-0.234,0,0,0,0,0,-0.1724,-0.1768,-0.1782,-0.1806,-0.1912,-0.2012,-0.203,-0.2098,-0.2112,-0.2152,-0.2221,-0.2211,-0.2429,-0.2365,-0.2382,-0.2522,-0.2637,-0.2649,-0.266,-0.2842,-0.2875,-0.2902,0,0,0,0,0,0,-0.1733,-0.1754,-0.1783,-0.1856,-0.1885,-0.2008,-0.2,-0.2017,-0.2109,-0.2115,-0.2197,-0.2211,-0.2223,-0.2356,-0.2371,-0.2506,-0.2335,-0.2642,-0.2652,-0.2661,-0.2853,-0.288,-0.2903,0,0,0,0,0,-0.1741,-0.1759,-0.1907,-0.1857,-0.1881,-0.1989,-0.1999,-0.2013,-0.2077,-0.2144,-0.2159,-0.2138,-0.2221,-0.224,-0.2365,-0.25,-0.2324,-0.233,-0.2648,-0.2656,-0.2663,-0.2866,0,0,0,0,0,0,-0.1748,-0.1749,-0.1914,-0.1927,-0.1861,-0.1985,-0.2,-0.201,-0.21,-0.2119,-0.2081,-0.2084,-0.222,-0.2235,-0.225,-0.2501,-0.2315,-0.2321,-0.2325,-0.2654,-0.2661,-0.2666,0,0,0,0,0,0,-0.1743,-0.1757,-0.1919,-0.192,-0.1932,-0.1981,-0.1995,-0.2056,-0.21,-0.2028,-0.2036,-0.2082,-0.222,-0.2231,-0.2243,-0.2333,-0.2308,-0.2314,-0.2318,-0.232,-0.266,-0.2664,0,0,0,0,0,0,-0.1751,-0.1763,-0.1916,-0.1925,-0.1935,-0.2065,-0.2036,-0.2143,-0.2099,-0.2021,-0.2101,-0.2102,-0.2217,-0.2228,-0.2238,-0.2323,-0.233,-0.2308,-0.2312,-0.2315,-0.2317,0,0,0,0,0,0,0,-0.1758,-0.1645,-0.1862,-0.1929,-0.1938,-0.2047,-0.2048,-0.2049,-0.2099,-0.21,-0.2101,-0.2101,-0.2275,-0.2282,-0.2288,-0.2315,0,0,-0.2308,-0.2311,0,0,0,0,0,0,0,0,-0.1642,-0.1644,-0.1863,-0.1867,-0.1871,-0.2047,-0.2048,-0.2049,-0.21,-0.21,-0.2101,-0.2101,-0.2277,-0.2282,-0.2287,0,0,0,0,0,0,0,0,0,0,0,0,0,0,0,-0.1863,-0.1867,0,-0.2047,-0.2048,-0.2048,-0.21,-0.21,-0.2101,-0.2101,-0.2278,-0.2283,-0.2287,0,0,0,0,0,0,0,0,0,0,0,0,0,0,0,0,0,0,0,0,0,0,0,0,0,0,0,0,0,0,0,0,0,0,0,0,0,0,0,0,0,0,0,0,0,0,0,0,0,0,0,0,0,0,0,0,0,0,0,0,0,0,0,0,0,0,0,0,0]}],[{"header":{"parameterUnit":"kt","parameterCategory":2,"dx":1,"dy":1,"la1":30.253999710083008,"la2":30.299108505249023,"lo1":-89.0895004272461,"lo2":-89.04439544677734,"nx":28,"ny":28,"refTime":"2022-10-15T21:00:00:Z","depth":"4","parameterNumber":3,"parameterNumberName":"V-component_of_CURRENTS"},"data":[-0.1039,-0.1154,-0.122,-0.1329,-0.1408,-0.151,-0.1541,-0.1543,-0.1409,-0.1344,-0.1086,-0.0982,-0.0548,-0.0739,-0.0135,-0.0067,-0.0096,0.0371,0.0376,0.0273,0.0254,0.0238,0.0111,0,0,0,0,0,-0.1026,-0.111,-0.1226,-0.1369,-0.1462,-0.1529,-0.1584,-0.1606,-0.1584,-0.1392,-0.1368,-0.1032,-0.0599,-0.0434,-0.014,-0.0163,0.008,0.0178,0.0081,0.0261,0.0241,0.0125,0,0,0,0,0,0,-0.1015,-0.1096,-0.1226,-0.1354,-0.1467,-0.1532,-0.1583,-0.1533,-0.1539,-0.1468,-0.1342,-0.1062,-0.0916,-0.0517,-0.0207,0.005,0.0086,0.0103,0.0092,0.0075,-0.0035,-0.0081,0.0205,0,0,0,0,0,-0.1001,-0.1077,-0.1187,-0.1334,-0.1443,-0.1544,-0.1619,-0.1628,-0.1649,-0.1683,-0.1453,-0.1248,-0.0906,-0.0603,-0.0285,0.0003,-0.0084,0.0104,0.0093,-0.0021,-0.0047,0.002,-0.0003,0.0165,0.0162,0.0161,0.016,0,-0.0962,-0.104,-0.1231,-0.1311,-0.1393,-0.1514,-0.158,-0.1659,-0.1679,-0.1637,-0.1608,-0.1421,-0.1296,-0.0729,-0.0534,-0.013,-0.0058,0.0051,-0.0071,-0.0082,-0.0005,-0.0024,-0.0041,0.0144,0.0145,0.0146,0.0148,0,-0.0936,-0.103,-0.1176,-0.1327,-0.1378,-0.1471,-0.1582,-0.1637,-0.1681,-0.1687,-0.1707,-0.1617,-0.1336,-0.1136,-0.0792,-0.0612,-0.0323,-0.0166,-0.0406,-0.0323,-0.0063,-0.0074,0.0117,0.0123,0.0128,0.0132,0.0136,0,-0.0917,-0.1018,-0.116,-0.1225,-0.1357,-0.1425,-0.1531,-0.1585,-0.1633,-0.1642,-0.165,-0.1601,-0.1449,-0.1242,-0.1003,-0.063,-0.0671,-0.041,-0.0312,-0.0548,-0.0555,-0.0475,-0.0475,-0.0495,-0.0497,-0.0499,-0.05,0,-0.0856,-0.1013,-0.1135,-0.1179,-0.1307,-0.1376,-0.1429,-0.149,-0.1527,-0.1576,-0.1579,-0.1536,-0.1483,-0.1279,-0.1001,-0.1002,-0.0686,-0.0672,-0.0386,-0.0373,-0.0486,-0.0483,-0.0503,-0.0503,-0.0503,-0.0504,-0.0505,0,-0.0838,-0.0915,-0.1069,-0.118,-0.121,-0.129,-0.1372,-0.143,-0.1461,-0.1459,-0.1468,-0.1423,-0.1402,-0.1307,-0.1078,-0.1094,-0.0884,-0.0762,-0.0747,-0.0591,-0.0464,-0.0458,-0.0516,-0.0517,-0.0519,-0.0521,-0.0522,0,-0.0746,-0.0885,-0.0919,-0.1053,-0.1122,-0.113,-0.12,-0.1243,-0.125,-0.1281,-0.1271,-0.1297,-0.1211,-0.1199,-0.1132,-0.0971,-0.0891,-0.0981,-0.0608,-0.0598,-0.048,-0.0505,-0.0799,-0.0543,-0.054,-0.0538,-0.0537,0,-0.0659,-0.0769,-0.0781,-0.0834,-0.089,-0.0935,-0.1011,-0.1068,-0.1101,-0.1118,-0.1158,-0.1184,-0.1128,-0.1111,-0.104,-0.0993,-0.0913,-0.0821,-0.0813,-0.0707,-0.0657,-0.0541,-0.0516,-0.08,-0.08,-0.08,-0.0552,0,-0.0621,-0.0672,-0.0711,-0.0772,-0.0808,-0.0866,-0.0879,-0.0912,-0.0891,-0.0892,-0.0932,-0.0925,-0.0914,-0.0902,-0.0846,-0.085,-0.0724,-0.0678,-0.0599,-0.0674,-0.0551,-0.054,-0.0628,-0.0626,-0.0623,-0.0622,0,0,-0.0508,-0.0571,-0.0557,-0.0617,-0.0641,-0.0604,-0.0678,-0.0693,-0.0716,-0.073,-0.0685,-0.0697,-0.0672,-0.0715,-0.0735,-0.0715,-0.0588,-0.0641,-0.0649,-0.0653,-0.0656,-0.0544,-0.0536,-0.0618,-0.0617,-0.0616,-0.0615,0,-0.049,-0.0478,-0.0532,-0.0557,-0.0573,-0.0575,-0.0586,-0.06,-0.0597,-0.0654,-0.0587,-0.0609,-0.0579,-0.0583,-0.0568,-0.0676,-0.0498,-0.0609,-0.0709,-0.0632,-0.0639,-0.0644,-0.0536,-0.0531,-0.061,-0.061,-0.061,0,-0.0418,-0.0417,-0.0436,-0.0462,-0.0468,-0.0522,-0.0447,-0.048,-0.0518,-0.0433,-0.0481,-0.0446,-0.0403,-0.0439,-0.0443,-0.0404,-0.0411,-0.0434,-0.0445,-0.0467,-0.0383,-0.0392,-0.04,-0.0289,-0.0288,-0.0287,0,0,-0.0396,-0.0425,-0.0425,-0.0454,-0.0464,-0.0449,-0.0455,-0.0441,-0.0444,-0.0442,-0.0414,-0.0385,-0.0378,-0.0369,-0.0364,-0.0401,-0.0325,-0.0398,-0.0413,-0.0426,-0.0455,-0.0376,-0.0385,-0.0285,-0.0285,-0.0284,0,0,-0.0385,-0.0388,-0.0367,-0.0398,-0.0415,-0.0413,-0.043,-0.0402,-0.0413,-0.0398,-0.0333,-0.0324,-0.0348,-0.0311,-0.0287,-0.0314,-0.0247,-0.0252,-0.0345,-0.0363,-0.0377,-0.0414,-0.0179,0,0,0,0,0,-0.036,-0.0394,-0.0374,-0.0375,-0.0387,-0.0429,-0.0431,-0.0391,-0.0341,-0.0372,-0.035,-0.0273,-0.0289,-0.0267,-0.0262,-0.0276,-0.0251,-0.0257,-0.0263,-0.039,-0.041,-0.0427,0,0,0,0,0,0,-0.036,-0.0364,-0.0373,-0.0372,-0.0373,-0.0428,-0.0351,-0.0343,-0.0337,-0.0328,-0.0285,-0.0272,-0.0232,-0.0263,-0.026,-0.0274,-0.0179,-0.0253,-0.0258,-0.0263,-0.0397,-0.0413,-0.0427,0,0,0,0,0,-0.036,-0.0363,-0.0389,-0.0371,-0.0372,-0.033,-0.0349,-0.0341,-0.0341,-0.0285,-0.0272,-0.0305,-0.0236,-0.0228,-0.0261,-0.0277,-0.018,-0.018,-0.0257,-0.0261,-0.0264,-0.0405,0,0,0,0,0,0,-0.036,-0.0371,-0.0389,-0.0388,-0.0337,-0.0327,-0.0324,-0.034,-0.0297,-0.0286,-0.0301,-0.0294,-0.0239,-0.0233,-0.0227,-0.0281,-0.0181,-0.0181,-0.018,-0.026,-0.0263,-0.0266,0,0,0,0,0,0,-0.0368,-0.0371,-0.0389,-0.0348,-0.0342,-0.0324,-0.0321,-0.0326,-0.0296,-0.0317,-0.031,-0.0298,-0.0219,-0.0236,-0.0232,-0.0244,-0.0182,-0.0181,-0.0181,-0.0181,-0.0262,-0.0265,0,0,0,0,0,0,-0.0369,-0.0371,-0.0348,-0.0344,-0.0338,-0.0326,-0.0325,-0.0327,-0.0298,-0.0319,-0.0289,-0.0284,-0.0222,-0.0218,-0.0235,-0.025,-0.0245,-0.0182,-0.0182,-0.0181,-0.0181,0,0,0,0,0,0,0,-0.0369,-0.0363,-0.0388,-0.0341,-0.0336,-0.0372,-0.0373,-0.0374,-0.0297,-0.0293,-0.029,-0.0286,-0.0185,-0.0185,-0.0184,-0.0255,0,0,-0.0182,-0.0182,0,0,0,0,0,0,0,0,-0.0361,-0.0363,-0.0387,-0.0387,-0.0386,-0.0373,-0.0373,-0.0373,-0.0297,-0.0293,-0.029,-0.0288,-0.0185,-0.0185,-0.0184,0,0,0,0,0,0,0,0,0,0,0,0,0,0,0,-0.0387,-0.0387,0,-0.0373,-0.0373,-0.0373,-0.0296,-0.0294,-0.0291,-0.0289,-0.0185,-0.0185,-0.0184,0,0,0,0,0,0,0,0,0,0,0,0,0,0,0,0,0,0,0,0,0,0,0,0,0,0,0,0,0,0,0,0,0,0,0,0,0,0,0,0,0,0,0,0,0,0,0,0,0,0,0,0,0,0,0,0,0,0,0,0,0,0,0,0,0,0,0,0,0]}]]]